Multibeam Report for FK150324


Ship Name: Falkor
Chief Scientist: Pizarro, Oscar
University of Sydney
Source Organization: Rolling Deck to Repository
Start Date: 2015-03-24
End Date: 2015-04-06


View ISO Metadata

Visit the full NCEI Bathymetry Viewer


Multibeam Bathymetry

Cruise Details

Project: Coordinated Robotics at Scott Reef
Instrument: Kongsberg EM710

Data Quality

Number of Files: 291
Number of Records: 3198899
BATHYMETRY DATA Quantity Percentage
Number of Beams 1279559600 100%
Number of Good Beams 1275623101 99.69%
Number of Zero Beams 0 0%
Number of Flagged Beams 3936499 0.31%
AMPLITUDE DATA Quantity Percentage
Number of Beams 1279559600 100%
Number of Good Beams 1275623101 99.69%
Number of Zero Beams 0 0%
Number of Flagged Beams 3936499 0.31%
SIDESCAN DATA Quantity Percentage
Number of Pixels 3275672576 100%
Number of Good Pixels 2887848863 88.16%
Number of Zero Pixels 0 0%
Number of Flagged Pixels 387823713 11.84%

Navigation Totals

Total Time: 115.3569 hours
Total Track Length: 1188.5331 km
Average Speed: 10.303 km/hr (5.5632 knots)

Cruise Bounds

Northern Extent: -13.954715
Southern Extent: -18.02181
Western Extent: 121.266495
Eastern Extent: 122.2432

Limits

Minimum Sonar Depth 4.3337 Maximum Sonar Depth 6.5647
Minimum Altitude 8.2266 Maximum Altitude 1870.1161
Minimum Depth 13.0876 Maximum Depth 2050.6816
Minimum Amplitude 0 Maximum Amplitude 53.8
Minimum Sidescan 0 Maximum Sidescan 327.6

File Information

Full Resolution Bathymetry as collected (raw): 288

Files File Size Description
0000_20150323_071248_FK150324_EM710.all.mb58.gz 220.36MB Kongsberg multibeam vendor format
0001_20150324_051249_FK150324_EM710.all.mb58.gz 865.01MB Kongsberg multibeam vendor format
0002_20150324_061249_FK150324_EM710.all.mb58.gz 1310.45MB Kongsberg multibeam vendor format
0003_20150324_071250_FK150324_EM710.all.mb58.gz 877.67MB Kongsberg multibeam vendor format
0004_20150324_081250_FK150324_EM710.all.mb58.gz 747.84MB Kongsberg multibeam vendor format
0005_20150324_091250_FK150324_EM710.all.mb58.gz 701.92MB Kongsberg multibeam vendor format
0006_20150324_101250_FK150324_EM710.all.mb58.gz 691.32MB Kongsberg multibeam vendor format
0007_20150324_111250_FK150324_EM710.all.mb58.gz 668.50MB Kongsberg multibeam vendor format
0008_20150324_121250_FK150324_EM710.all.mb58.gz 677.96MB Kongsberg multibeam vendor format
0009_20150324_131250_FK150324_EM710.all.mb58.gz 727.90MB Kongsberg multibeam vendor format
0010_20150324_141250_FK150324_EM710.all.mb58.gz 747.89MB Kongsberg multibeam vendor format
0011_20150324_151250_FK150324_EM710.all.mb58.gz 785.06MB Kongsberg multibeam vendor format
0012_20150324_161250_FK150324_EM710.all.mb58.gz 748.94MB Kongsberg multibeam vendor format
0013_20150324_171251_FK150324_EM710.all.mb58.gz 648.97MB Kongsberg multibeam vendor format
0014_20150324_181251_FK150324_EM710.all.mb58.gz 599.79MB Kongsberg multibeam vendor format
0015_20150324_191251_FK150324_EM710.all.mb58.gz 561.06MB Kongsberg multibeam vendor format
0016_20150324_201251_FK150324_EM710.all.mb58.gz 546.49MB Kongsberg multibeam vendor format
0017_20150324_211251_FK150324_EM710.all.mb58.gz 559.15MB Kongsberg multibeam vendor format
0018_20150324_221251_FK150324_EM710.all.mb58.gz 480.11MB Kongsberg multibeam vendor format
0019_20150324_231251_FK150324_EM710.all.mb58.gz 401.06MB Kongsberg multibeam vendor format
0020_20150325_001251_FK150324_EM710.all.mb58.gz 364.62MB Kongsberg multibeam vendor format
0021_20150325_011251_FK150324_EM710.all.mb58.gz 310.44MB Kongsberg multibeam vendor format
0022_20150325_021252_FK150324_EM710.all.mb58.gz 62.60MB Kongsberg multibeam vendor format
0023_20150325_022716_FK150324_EM710.all.mb58.gz 278.77MB Kongsberg multibeam vendor format
0024_20150325_032714_FK150324_EM710.all.mb58.gz 84.02MB Kongsberg multibeam vendor format
0025_20150325_042716_FK150324_EM710.all.mb58.gz 104.15MB Kongsberg multibeam vendor format
0026_20150325_052716_FK150324_EM710.all.mb58.gz 101.23MB Kongsberg multibeam vendor format
0027_20150325_062715_FK150324_EM710.all.mb58.gz 220.26MB Kongsberg multibeam vendor format
0028_20150325_072714_FK150324_EM710.all.mb58.gz 763.62MB Kongsberg multibeam vendor format
0029_20150325_082714_FK150324_EM710.all.mb58.gz 748.99MB Kongsberg multibeam vendor format
0030_20150325_092714_FK150324_EM710.all.mb58.gz 964.21MB Kongsberg multibeam vendor format
0031_20150325_102714_FK150324_EM710.all.mb58.gz 514.56MB Kongsberg multibeam vendor format
0032_20150325_110630_FK150324_EM710.all.mb58.gz 311.50MB Kongsberg multibeam vendor format
0033_20150325_113041_FK150324_EM710.all.mb58.gz 12.47MB Kongsberg multibeam vendor format
0034_20150325_113144_FK150324_EM710.all.mb58.gz 299.66MB Kongsberg multibeam vendor format
0035_20150325_115507_FK150324_EM710.all.mb58.gz 314.34MB Kongsberg multibeam vendor format
0036_20150325_122006_FK150324_EM710.all.mb58.gz 345.57MB Kongsberg multibeam vendor format
0037_20150325_124747_FK150324_EM710.all.mb58.gz 335.41MB Kongsberg multibeam vendor format
0038_20150325_131513_FK150324_EM710.all.mb58.gz 309.30MB Kongsberg multibeam vendor format
0039_20150325_134053_FK150324_EM710.all.mb58.gz 337.73MB Kongsberg multibeam vendor format
0040_20150325_140905_FK150324_EM710.all.mb58.gz 1.61MB Kongsberg multibeam vendor format
0041_20150325_140913_FK150324_EM710.all.mb58.gz 244.81MB Kongsberg multibeam vendor format
0042_20150325_142928_FK150324_EM710.all.mb58.gz 305.55MB Kongsberg multibeam vendor format
0043_20150325_145441_FK150324_EM710.all.mb58.gz 229.56MB Kongsberg multibeam vendor format
0044_20150325_151222_FK150324_EM710.all.mb58.gz 168.90MB Kongsberg multibeam vendor format
0045_20150325_152616_FK150324_EM710.all.mb58.gz 292.37MB Kongsberg multibeam vendor format
0046_20150325_154853_FK150324_EM710.all.mb58.gz 176.20MB Kongsberg multibeam vendor format
0047_20150325_160307_FK150324_EM710.all.mb58.gz 234.73MB Kongsberg multibeam vendor format
0048_20150325_162245_FK150324_EM710.all.mb58.gz 275.99MB Kongsberg multibeam vendor format
0049_20150325_164420_FK150324_EM710.all.mb58.gz 226.84MB Kongsberg multibeam vendor format
0050_20150325_170245_FK150324_EM710.all.mb58.gz 214.74MB Kongsberg multibeam vendor format
0051_20150325_172000_FK150324_EM710.all.mb58.gz 388.77MB Kongsberg multibeam vendor format
0052_20150325_175006_FK150324_EM710.all.mb58.gz 365.25MB Kongsberg multibeam vendor format
0053_20150325_183318_FK150324_EM710.all.mb58.gz 351.32MB Kongsberg multibeam vendor format
0054_20150325_190154_FK150324_EM710.all.mb58.gz 45.53MB Kongsberg multibeam vendor format
0054_20150325_190649_FK150324_EM710.all.mb58.gz 466.21MB Kongsberg multibeam vendor format
0055_20150325_194433_FK150324_EM710.all.mb58.gz 293.88MB Kongsberg multibeam vendor format
0056_20150325_200733_FK150324_EM710.all.mb58.gz 319.13MB Kongsberg multibeam vendor format
0057_20150325_203207_FK150324_EM710.all.mb58.gz 312.49MB Kongsberg multibeam vendor format
0058_20150325_205641_FK150324_EM710.all.mb58.gz 188.00MB Kongsberg multibeam vendor format
0059_20150325_211219_FK150324_EM710.all.mb58.gz 34.07MB Kongsberg multibeam vendor format
0060_20150325_212147_FK150324_EM710.all.mb58.gz 420.40MB Kongsberg multibeam vendor format
0061_20150325_215340_FK150324_EM710.all.mb58.gz 854.14MB Kongsberg multibeam vendor format
0062_20150325_225341_FK150324_EM710.all.mb58.gz 867.08MB Kongsberg multibeam vendor format
0063_20150325_235341_FK150324_EM710.all.mb58.gz 861.67MB Kongsberg multibeam vendor format
0064_20150326_005341_FK150324_EM710.all.mb58.gz 29.80MB Kongsberg multibeam vendor format
0065_20150326_093932_FK150324_EM710.all.mb58.gz 802.97MB Kongsberg multibeam vendor format
0066_20150326_103926_FK150324_EM710.all.mb58.gz 205.49MB Kongsberg multibeam vendor format
0067_20150326_105530_FK150324_EM710.all.mb58.gz 175.96MB Kongsberg multibeam vendor format
0068_20150326_110931_FK150324_EM710.all.mb58.gz 14.06MB Kongsberg multibeam vendor format
0069_20150326_111928_FK150324_EM710.all.mb58.gz 233.99MB Kongsberg multibeam vendor format
0070_20150326_114122_FK150324_EM710.all.mb58.gz 97.08MB Kongsberg multibeam vendor format
0071_20150326_114841_FK150324_EM710.all.mb58.gz 7.49MB Kongsberg multibeam vendor format
0072_20150326_115311_FK150324_EM710.all.mb58.gz 28.09MB Kongsberg multibeam vendor format
0073_20150326_115713_FK150324_EM710.all.mb58.gz 54.17MB Kongsberg multibeam vendor format
0074_20150326_120825_FK150324_EM710.all.mb58.gz 50.62MB Kongsberg multibeam vendor format
0075_20150326_121818_FK150324_EM710.all.mb58.gz 75.42MB Kongsberg multibeam vendor format
0076_20150326_123512_FK150324_EM710.all.mb58.gz 79.25MB Kongsberg multibeam vendor format
0077_20150326_125004_FK150324_EM710.all.mb58.gz 93.68MB Kongsberg multibeam vendor format
0078_20150326_130538_FK150324_EM710.all.mb58.gz 81.23MB Kongsberg multibeam vendor format
0079_20150326_132316_FK150324_EM710.all.mb58.gz 89.26MB Kongsberg multibeam vendor format
0080_20150326_133506_FK150324_EM710.all.mb58.gz 125.55MB Kongsberg multibeam vendor format
0081_20150326_135557_FK150324_EM710.all.mb58.gz 51.01MB Kongsberg multibeam vendor format
0082_20150326_140634_FK150324_EM710.all.mb58.gz 47.43MB Kongsberg multibeam vendor format
0083_20150326_143750_FK150324_EM710.all.mb58.gz 75.96MB Kongsberg multibeam vendor format
0084_20150326_145452_FK150324_EM710.all.mb58.gz 94.61MB Kongsberg multibeam vendor format
0085_20150326_151411_FK150324_EM710.all.mb58.gz 83.57MB Kongsberg multibeam vendor format
0086_20150326_153330_FK150324_EM710.all.mb58.gz 87.11MB Kongsberg multibeam vendor format
0087_20150326_154620_FK150324_EM710.all.mb58.gz 41.94MB Kongsberg multibeam vendor format
0088_20150326_155909_FK150324_EM710.all.mb58.gz 333.58MB Kongsberg multibeam vendor format
0089_20150326_162742_FK150324_EM710.all.mb58.gz 306.90MB Kongsberg multibeam vendor format
0090_20150326_165604_FK150324_EM710.all.mb58.gz 336.82MB Kongsberg multibeam vendor format
0091_20150326_172552_FK150324_EM710.all.mb58.gz 301.60MB Kongsberg multibeam vendor format
0092_20150326_174933_FK150324_EM710.all.mb58.gz 227.2KB Kongsberg multibeam vendor format
0093_20150326_175425_FK150324_EM710.all.mb58.gz 711.20MB Kongsberg multibeam vendor format
0094_20150326_185305_FK150324_EM710.all.mb58.gz 724.84MB Kongsberg multibeam vendor format
0095_20150326_195321_FK150324_EM710.all.mb58.gz 513.85MB Kongsberg multibeam vendor format
0096_20150326_203501_FK150324_EM710.all.mb58.gz 470.59MB Kongsberg multibeam vendor format
0097_20150326_211617_FK150324_EM710.all.mb58.gz 300.95MB Kongsberg multibeam vendor format
0098_20150326_214230_FK150324_EM710.all.mb58.gz 267.61MB Kongsberg multibeam vendor format
0099_20150326_220755_FK150324_EM710.all.mb58.gz 111.4KB Kongsberg multibeam vendor format
0100_20150326_220757_FK150324_EM710.all.mb58.gz 290.96MB Kongsberg multibeam vendor format
0101_20150326_223309_FK150324_EM710.all.mb58.gz 286.32MB Kongsberg multibeam vendor format
0102_20150326_225807_FK150324_EM710.all.mb58.gz 167.03MB Kongsberg multibeam vendor format
0103_20150326_232833_FK150324_EM710.all.mb58.gz 216.80MB Kongsberg multibeam vendor format
0104_20150328_114231_FK150324_EM710.all.mb58.gz 827.21MB Kongsberg multibeam vendor format
0105_20150328_124231_FK150324_EM710.all.mb58.gz 52.92MB Kongsberg multibeam vendor format
0106_20150328_124611_FK150324_EM710.all.mb58.gz 270.95MB Kongsberg multibeam vendor format
0107_20150328_131907_FK150324_EM710.all.mb58.gz 677.89MB Kongsberg multibeam vendor format
0108_20150328_140805_FK150324_EM710.all.mb58.gz 634.30MB Kongsberg multibeam vendor format
0109_20150328_145729_FK150324_EM710.all.mb58.gz 523.36MB Kongsberg multibeam vendor format
0110_20150328_153822_FK150324_EM710.all.mb58.gz 465.86MB Kongsberg multibeam vendor format
0111_20150328_161728_FK150324_EM710.all.mb58.gz 594.98MB Kongsberg multibeam vendor format
0112_20150328_170244_FK150324_EM710.all.mb58.gz 412.15MB Kongsberg multibeam vendor format
0113_20150328_173716_FK150324_EM710.all.mb58.gz 541.96MB Kongsberg multibeam vendor format
0114_20150328_182208_FK150324_EM710.all.mb58.gz 470.11MB Kongsberg multibeam vendor format
0115_20150328_190103_FK150324_EM710.all.mb58.gz 591.78MB Kongsberg multibeam vendor format
0116_20150328_194801_FK150324_EM710.all.mb58.gz 415.78MB Kongsberg multibeam vendor format
0117_20150328_202418_FK150324_EM710.all.mb58.gz 313.66MB Kongsberg multibeam vendor format
0118_20150328_205133_FK150324_EM710.all.mb58.gz 278.47MB Kongsberg multibeam vendor format
0119_20150328_211805_FK150324_EM710.all.mb58.gz 297.85MB Kongsberg multibeam vendor format
0120_20150328_214322_FK150324_EM710.all.mb58.gz 270.71MB Kongsberg multibeam vendor format
0121_20150329_070230_FK150324_EM710.all.mb58.gz 561.27MB Kongsberg multibeam vendor format
0122_20150329_102608_FK150324_EM710.all.mb58.gz 404.20MB Kongsberg multibeam vendor format
0123_20150329_112611_FK150324_EM710.all.mb58.gz 75.55MB Kongsberg multibeam vendor format
0124_20150329_151752_FK150324_EM710.all.mb58.gz 209.87MB Kongsberg multibeam vendor format
0125_20150329_161750_FK150324_EM710.all.mb58.gz 320.70MB Kongsberg multibeam vendor format
0126_20150329_164246_FK150324_EM710.all.mb58.gz 462.36MB Kongsberg multibeam vendor format
0127_20150329_172442_FK150324_EM710.all.mb58.gz 429.28MB Kongsberg multibeam vendor format
0128_20150329_180551_FK150324_EM710.all.mb58.gz 394.01MB Kongsberg multibeam vendor format
0129_20150329_184839_FK150324_EM710.all.mb58.gz 155.87MB Kongsberg multibeam vendor format
0130_20150329_190738_FK150324_EM710.all.mb58.gz 52.54MB Kongsberg multibeam vendor format
0131_20150329_191842_FK150324_EM710.all.mb58.gz 361.32MB Kongsberg multibeam vendor format
0132_20150329_195249_FK150324_EM710.all.mb58.gz 386.07MB Kongsberg multibeam vendor format
0133_20150329_203014_FK150324_EM710.all.mb58.gz 349.90MB Kongsberg multibeam vendor format
0134_20150329_205825_FK150324_EM710.all.mb58.gz 447.0KB Kongsberg multibeam vendor format
0135_20150329_210646_FK150324_EM710.all.mb58.gz 363.78MB Kongsberg multibeam vendor format
0136_20150329_213931_FK150324_EM710.all.mb58.gz 198.89MB Kongsberg multibeam vendor format
0137_20150329_215757_FK150324_EM710.all.mb58.gz 87.67MB Kongsberg multibeam vendor format
0138_20150329_224015_FK150324_EM710.all.mb58.gz 33.91MB Kongsberg multibeam vendor format
0139_20150330_112638_FK150324_EM710.all.mb58.gz 66.86MB Kongsberg multibeam vendor format
0140_20150330_113558_FK150324_EM710.all.mb58.gz 327.33MB Kongsberg multibeam vendor format
0141_20150330_120619_FK150324_EM710.all.mb58.gz 108.97MB Kongsberg multibeam vendor format
0142_20150330_121437_FK150324_EM710.all.mb58.gz 58.5KB Kongsberg multibeam vendor format
0143_20150330_121437_FK150324_EM710.all.mb58.gz 96.63MB Kongsberg multibeam vendor format
0144_20150330_122916_FK150324_EM710.all.mb58.gz 181.31MB Kongsberg multibeam vendor format
0145_20150330_125106_FK150324_EM710.all.mb58.gz 362.79MB Kongsberg multibeam vendor format
0146_20150330_132458_FK150324_EM710.all.mb58.gz 293.71MB Kongsberg multibeam vendor format
0147_20150330_135920_FK150324_EM710.all.mb58.gz 38.83MB Kongsberg multibeam vendor format
0148_20150330_140322_FK150324_EM710.all.mb58.gz 245.56MB Kongsberg multibeam vendor format
0149_20150330_142842_FK150324_EM710.all.mb58.gz 327.34MB Kongsberg multibeam vendor format
0150_20150330_150547_FK150324_EM710.all.mb58.gz 6.86MB Kongsberg multibeam vendor format
0151_20150330_150625_FK150324_EM710.all.mb58.gz 320.84MB Kongsberg multibeam vendor format
0152_20150330_153855_FK150324_EM710.all.mb58.gz 318.98MB Kongsberg multibeam vendor format
0153_20150330_161112_FK150324_EM710.all.mb58.gz 97.12MB Kongsberg multibeam vendor format
0154_20150330_162804_FK150324_EM710.all.mb58.gz 77.55MB Kongsberg multibeam vendor format
0155_20150330_163950_FK150324_EM710.all.mb58.gz 51.32MB Kongsberg multibeam vendor format
0156_20150330_164414_FK150324_EM710.all.mb58.gz 29.30MB Kongsberg multibeam vendor format
0157_20150330_170111_FK150324_EM710.all.mb58.gz 358.64MB Kongsberg multibeam vendor format
0158_20150330_173641_FK150324_EM710.all.mb58.gz 367.64MB Kongsberg multibeam vendor format
0159_20150330_181226_FK150324_EM710.all.mb58.gz 372.83MB Kongsberg multibeam vendor format
0160_20150330_184751_FK150324_EM710.all.mb58.gz 315.96MB Kongsberg multibeam vendor format
0161_20150330_193014_FK150324_EM710.all.mb58.gz 159.65MB Kongsberg multibeam vendor format
0162_20150330_194858_FK150324_EM710.all.mb58.gz 56.74MB Kongsberg multibeam vendor format
0163_20150330_200004_FK150324_EM710.all.mb58.gz 101.02MB Kongsberg multibeam vendor format
0164_20150330_201506_FK150324_EM710.all.mb58.gz 68.49MB Kongsberg multibeam vendor format
0165_20150330_204149_FK150324_EM710.all.mb58.gz 337.16MB Kongsberg multibeam vendor format
0166_20150330_211334_FK150324_EM710.all.mb58.gz 329.03MB Kongsberg multibeam vendor format
0167_20150330_214318_FK150324_EM710.all.mb58.gz 143.85MB Kongsberg multibeam vendor format
0168_20150330_220012_FK150324_EM710.all.mb58.gz 81.86MB Kongsberg multibeam vendor format
0169_20150331_102133_FK150324_EM710.all.mb58.gz 385.40MB Kongsberg multibeam vendor format
0170_20150331_105526_FK150324_EM710.all.mb58.gz 380.71MB Kongsberg multibeam vendor format
0171_20150331_113107_FK150324_EM710.all.mb58.gz 130.13MB Kongsberg multibeam vendor format
0172_20150331_114514_FK150324_EM710.all.mb58.gz 186.82MB Kongsberg multibeam vendor format
0173_20150331_120341_FK150324_EM710.all.mb58.gz 237.14MB Kongsberg multibeam vendor format
0174_20150331_122803_FK150324_EM710.all.mb58.gz 229.91MB Kongsberg multibeam vendor format
0175_20150331_125024_FK150324_EM710.all.mb58.gz 48.27MB Kongsberg multibeam vendor format
0176_20150331_134254_FK150324_EM710.all.mb58.gz 304.67MB Kongsberg multibeam vendor format
0177_20150331_141559_FK150324_EM710.all.mb58.gz 205.36MB Kongsberg multibeam vendor format
0178_20150331_144819_FK150324_EM710.all.mb58.gz 235.02MB Kongsberg multibeam vendor format
0179_20150331_151624_FK150324_EM710.all.mb58.gz 462.09MB Kongsberg multibeam vendor format
0180_20150331_160018_FK150324_EM710.all.mb58.gz 407.44MB Kongsberg multibeam vendor format
0181_20150331_163652_FK150324_EM710.all.mb58.gz 425.27MB Kongsberg multibeam vendor format
0182_20150331_171431_FK150324_EM710.all.mb58.gz 398.76MB Kongsberg multibeam vendor format
0183_20150331_175507_FK150324_EM710.all.mb58.gz 47.53MB Kongsberg multibeam vendor format
0184_20150331_175823_FK150324_EM710.all.mb58.gz 1.08MB Kongsberg multibeam vendor format
0185_20150331_180010_FK150324_EM710.all.mb58.gz 28.21MB Kongsberg multibeam vendor format
0186_20150331_181106_FK150324_EM710.all.mb58.gz 490.43MB Kongsberg multibeam vendor format
0187_20150331_184804_FK150324_EM710.all.mb58.gz 0.64MB Kongsberg multibeam vendor format
0188_20150331_185457_FK150324_EM710.all.mb58.gz 509.31MB Kongsberg multibeam vendor format
0189_20150331_194307_FK150324_EM710.all.mb58.gz 449.95MB Kongsberg multibeam vendor format
0190_20150331_202255_FK150324_EM710.all.mb58.gz 327.27MB Kongsberg multibeam vendor format
0191_20150331_205336_FK150324_EM710.all.mb58.gz 40.97MB Kongsberg multibeam vendor format
0192_20150331_211354_FK150324_EM710.all.mb58.gz 199.47MB Kongsberg multibeam vendor format
0193_20150331_213706_FK150324_EM710.all.mb58.gz 198.10MB Kongsberg multibeam vendor format
0194_20150331_215718_FK150324_EM710.all.mb58.gz 180.61MB Kongsberg multibeam vendor format
0195_20150401_103345_FK150324_EM710.all.mb58.gz 48.74MB Kongsberg multibeam vendor format
0196_20150401_103953_FK150324_EM710.all.mb58.gz 187.08MB Kongsberg multibeam vendor format
0197_20150401_105851_FK150324_EM710.all.mb58.gz 168.47MB Kongsberg multibeam vendor format
0198_20150401_111736_FK150324_EM710.all.mb58.gz 181.99MB Kongsberg multibeam vendor format
0199_20150401_113800_FK150324_EM710.all.mb58.gz 177.38MB Kongsberg multibeam vendor format
0200_20150401_115752_FK150324_EM710.all.mb58.gz 210.87MB Kongsberg multibeam vendor format
0201_20150401_122035_FK150324_EM710.all.mb58.gz 210.51MB Kongsberg multibeam vendor format
0202_20150401_124335_FK150324_EM710.all.mb58.gz 246.82MB Kongsberg multibeam vendor format
0203_20150401_130938_FK150324_EM710.all.mb58.gz 207.94MB Kongsberg multibeam vendor format
0204_20150401_133629_FK150324_EM710.all.mb58.gz 266.16MB Kongsberg multibeam vendor format
0205_20150401_140338_FK150324_EM710.all.mb58.gz 260.55MB Kongsberg multibeam vendor format
0206_20150401_143023_FK150324_EM710.all.mb58.gz 284.31MB Kongsberg multibeam vendor format
0207_20150401_145829_FK150324_EM710.all.mb58.gz 270.62MB Kongsberg multibeam vendor format
0208_20150401_152554_FK150324_EM710.all.mb58.gz 297.80MB Kongsberg multibeam vendor format
0209_20150401_155808_FK150324_EM710.all.mb58.gz 79.93MB Kongsberg multibeam vendor format
0210_20150401_160614_FK150324_EM710.all.mb58.gz 129.31MB Kongsberg multibeam vendor format
0211_20150401_161631_FK150324_EM710.all.mb58.gz 36.96MB Kongsberg multibeam vendor format
0212_20150401_165447_FK150324_EM710.all.mb58.gz 272.20MB Kongsberg multibeam vendor format
0213_20150401_171940_FK150324_EM710.all.mb58.gz 286.86MB Kongsberg multibeam vendor format
0214_20150401_174724_FK150324_EM710.all.mb58.gz 315.25MB Kongsberg multibeam vendor format
0215_20150401_181146_FK150324_EM710.all.mb58.gz 0.83MB Kongsberg multibeam vendor format
0216_20150401_181716_FK150324_EM710.all.mb58.gz 291.72MB Kongsberg multibeam vendor format
0217_20150401_184722_FK150324_EM710.all.mb58.gz 332.56MB Kongsberg multibeam vendor format
0218_20150401_191612_FK150324_EM710.all.mb58.gz 503.51MB Kongsberg multibeam vendor format
0219_20150401_195906_FK150324_EM710.all.mb58.gz 419.60MB Kongsberg multibeam vendor format
0220_20150401_203119_FK150324_EM710.all.mb58.gz 191.45MB Kongsberg multibeam vendor format
0221_20150401_205539_FK150324_EM710.all.mb58.gz 24.68MB Kongsberg multibeam vendor format
0222_20150401_210639_FK150324_EM710.all.mb58.gz 327.19MB Kongsberg multibeam vendor format
0223_20150401_213514_FK150324_EM710.all.mb58.gz 289.33MB Kongsberg multibeam vendor format
0224_20150401_215954_FK150324_EM710.all.mb58.gz 22.12MB Kongsberg multibeam vendor format
0225_20150401_220623_FK150324_EM710.all.mb58.gz 753.08MB Kongsberg multibeam vendor format
0226_20150401_230623_FK150324_EM710.all.mb58.gz 740.91MB Kongsberg multibeam vendor format
0227_20150402_000623_FK150324_EM710.all.mb58.gz 754.47MB Kongsberg multibeam vendor format
0228_20150402_010623_FK150324_EM710.all.mb58.gz 157.86MB Kongsberg multibeam vendor format
0229_20150402_111358_FK150324_EM710.all.mb58.gz 325.35MB Kongsberg multibeam vendor format
0230_20150402_114440_FK150324_EM710.all.mb58.gz 266.49MB Kongsberg multibeam vendor format
0231_20150402_121156_FK150324_EM710.all.mb58.gz 216.80MB Kongsberg multibeam vendor format
0232_20150402_123859_FK150324_EM710.all.mb58.gz 193.06MB Kongsberg multibeam vendor format
0233_20150402_130037_FK150324_EM710.all.mb58.gz 167.81MB Kongsberg multibeam vendor format
0234_20150402_132248_FK150324_EM710.all.mb58.gz 182.77MB Kongsberg multibeam vendor format
0235_20150402_134958_FK150324_EM710.all.mb58.gz 73.07MB Kongsberg multibeam vendor format
0236_20150402_140657_FK150324_EM710.all.mb58.gz 202.04MB Kongsberg multibeam vendor format
0237_20150402_142738_FK150324_EM710.all.mb58.gz 35.72MB Kongsberg multibeam vendor format
0238_20150402_144101_FK150324_EM710.all.mb58.gz 76.72MB Kongsberg multibeam vendor format
0239_20150402_145159_FK150324_EM710.all.mb58.gz 69.84MB Kongsberg multibeam vendor format
0240_20150402_150608_FK150324_EM710.all.mb58.gz 62.30MB Kongsberg multibeam vendor format
0241_20150402_151927_FK150324_EM710.all.mb58.gz 85.78MB Kongsberg multibeam vendor format
0242_20150402_153416_FK150324_EM710.all.mb58.gz 290.22MB Kongsberg multibeam vendor format
0243_20150402_160208_FK150324_EM710.all.mb58.gz 297.54MB Kongsberg multibeam vendor format
0245_20150402_162940_FK150324_EM710.all.mb58.gz 126.71MB Kongsberg multibeam vendor format
0246_20150402_164235_FK150324_EM710.all.mb58.gz 34.58MB Kongsberg multibeam vendor format
0247_20150402_165910_FK150324_EM710.all.mb58.gz 51.06MB Kongsberg multibeam vendor format
0248_20150402_173208_FK150324_EM710.all.mb58.gz 32.64MB Kongsberg multibeam vendor format
0249_20150402_175750_FK150324_EM710.all.mb58.gz 51.92MB Kongsberg multibeam vendor format
0250_20150402_180927_FK150324_EM710.all.mb58.gz 60.32MB Kongsberg multibeam vendor format
0251_20150402_190522_FK150324_EM710.all.mb58.gz 830.14MB Kongsberg multibeam vendor format
0252_20150402_200523_FK150324_EM710.all.mb58.gz 18.48MB Kongsberg multibeam vendor format
0253_20150402_200653_FK150324_EM710.all.mb58.gz 333.0KB Kongsberg multibeam vendor format
0254_20150403_103207_FK150324_EM710.all.mb58.gz 146.23MB Kongsberg multibeam vendor format
0255_20150403_105435_FK150324_EM710.all.mb58.gz 46.19MB Kongsberg multibeam vendor format
0256_20150403_132326_FK150324_EM710.all.mb58.gz 141.12MB Kongsberg multibeam vendor format
0257_20150403_133236_FK150324_EM710.all.mb58.gz 37.90MB Kongsberg multibeam vendor format
0258_20150403_134627_FK150324_EM710.all.mb58.gz 644.72MB Kongsberg multibeam vendor format
0259_20150403_145157_FK150324_EM710.all.mb58.gz 184.46MB Kongsberg multibeam vendor format
0260_20150403_151449_FK150324_EM710.all.mb58.gz 180.88MB Kongsberg multibeam vendor format
0261_20150403_153726_FK150324_EM710.all.mb58.gz 562.02MB Kongsberg multibeam vendor format
0262_20150403_162740_FK150324_EM710.all.mb58.gz 663.56MB Kongsberg multibeam vendor format
0263_20150403_173421_FK150324_EM710.all.mb58.gz 686.99MB Kongsberg multibeam vendor format
0264_20150403_183144_FK150324_EM710.all.mb58.gz 624.54MB Kongsberg multibeam vendor format
0266_20150403_192942_FK150324_EM710.all.mb58.gz 752.43MB Kongsberg multibeam vendor format
0267_20150403_203833_FK150324_EM710.all.mb58.gz 55.31MB Kongsberg multibeam vendor format
0268_20150403_204226_FK150324_EM710.all.mb58.gz 324.25MB Kongsberg multibeam vendor format
0269_20150403_210635_FK150324_EM710.all.mb58.gz 121.64MB Kongsberg multibeam vendor format
0270_20150403_211424_FK150324_EM710.all.mb58.gz 389.3KB Kongsberg multibeam vendor format
0271_20150403_212310_FK150324_EM710.all.mb58.gz 606.74MB Kongsberg multibeam vendor format
0272_20150403_221708_FK150324_EM710.all.mb58.gz 225.88MB Kongsberg multibeam vendor format
0273_20150404_120940_FK150324_EM710.all.mb58.gz 19.26MB Kongsberg multibeam vendor format
0274_20150404_121909_FK150324_EM710.all.mb58.gz 437.98MB Kongsberg multibeam vendor format
0275_20150404_125429_FK150324_EM710.all.mb58.gz 358.28MB Kongsberg multibeam vendor format
0276_20150404_133132_FK150324_EM710.all.mb58.gz 377.60MB Kongsberg multibeam vendor format
0277_20150404_140659_FK150324_EM710.all.mb58.gz 444.60MB Kongsberg multibeam vendor format
0278_20150404_144725_FK150324_EM710.all.mb58.gz 448.35MB Kongsberg multibeam vendor format
0279_20150404_152950_FK150324_EM710.all.mb58.gz 156.78MB Kongsberg multibeam vendor format
0280_20150404_161207_FK150324_EM710.all.mb58.gz 65.7KB Kongsberg multibeam vendor format
0283_20150404_161214_FK150324_EM710.all.mb58.gz 124.72MB Kongsberg multibeam vendor format
0284_20150404_162627_FK150324_EM710.all.mb58.gz 103.81MB Kongsberg multibeam vendor format
0285_20150404_164021_FK150324_EM710.all.mb58.gz 303.91MB Kongsberg multibeam vendor format
0286_20150404_170942_FK150324_EM710.all.mb58.gz 816.98MB Kongsberg multibeam vendor format
0287_20150404_180942_FK150324_EM710.all.mb58.gz 258.69MB Kongsberg multibeam vendor format
0288_20150404_183628_FK150324_EM710.all.mb58.gz 104.08MB Kongsberg multibeam vendor format
0289_20150404_184441_FK150324_EM710.all.mb58.gz 0.53MB Kongsberg multibeam vendor format
0290_20150404_184445_FK150324_EM710.all.mb58.gz 432.31MB Kongsberg multibeam vendor format

Metadata Files: 2

Files File Size Description
FK150324_Multibeam.xml NGDC created ISO metadata
em710_bag_info.tar.gz 13.9KB Additional cruise information

Water Column Sonar Data

Water Column Sonar Data Available: WCSD Map Viewer